Regional Weather Roundup
Issued by NWS

Home | Current Version | Previous Version | Text Only | Print | Product List | Glossary On
Versions: 1 2 3 4 5 6 7 8 9 10 11 12 13 14 15 16 17 18 19 20 21 22 23 24 25 26 27 28 29 30 31 32 33 34 35 36 37 38 39 40 41 42 43 44 45 46
000
ASUS45 KREV 292110
RWRNV
NEVADA REGIONAL WEATHER ROUNDUP
NATIONAL WEATHER SERVICE RENO NV
200 PM PDT WED JUL 29 2015

NOTE: "FAIR" INDICATES FEW OR NO CLOUDS BELOW 12,000 FEET WITH NO
SIGNIFICANT WEATHER AND/OR OBSTRUCTIONS TO VISIBILITY.

NVZ001-003-004-292200-
WESTERN NEVADA

CITY           SKY/WX    TMP DP  RH WIND       PRES   REMARKS
RENO           MOSUNNY   92  23   8 E10       30.18F
CARSON CITY    FAIR      90  19   7 E12       30.21F
MINDEN         FAIR      86  27  11 N5        30.20F
SLIDE MTN        N/A     64  36  34 SE6         N/A
PYRAMID LAKE     N/A     81 N/A N/A NW6         N/A
FALLON         MOSUNNY   91  20   7 VRB3      30.17F
LOVELOCK       SUNNY     88  21   8 S7        30.18F
HAWTHORNE      SUNNY     88  21   8 N7        30.19F
$$

NVZ002-CAZ072-073-292200-
NORTHERN AND CENTRAL SIERRA

CITY           SKY/WX    TMP DP  RH WIND       PRES   REMARKS
S. LAKE TAHOE  SUNNY     82  30  15 N8        30.31S
TRUCKEE        MOSUNNY   84  32  15 SW6       30.28F
SQUAW VLY 8000   N/A     73  32  21 SW3         N/A
SUSANVILLE     SUNNY     86  23  10 E8        30.19F
BLUE CANYON    SUNNY     85  31  14 VRB6      30.25S
MAMMOTH LAKES  FAIR      82  25  12 E10G18    30.36F
BRIDGEPORT     FAIR      83  25  12 VRB3      30.30F
$$

NVZ030-031-036-292200-
NORTHERN NEVADA

CITY           SKY/WX    TMP DP  RH WIND       PRES   REMARKS
ELKO           SUNNY     85  23  10 SW9       30.26F
WINNEMUCCA     NOT AVBL
WENDOVER       SUNNY     81  27  13 SE8       30.28F
$$

NVZ035-037-292200-
CENTRAL NEVADA

CITY           SKY/WX    TMP DP  RH WIND       PRES   REMARKS
ELY            SUNNY     86  23  10 NE7G20    30.31F
EUREKA           N/A     88  21   8 N10       30.28F
$$

NVZ013-014-292200-
SOUTH CENTRAL NEVADA

CITY           SKY/WX    TMP DP  RH WIND       PRES   REMARKS
TONOPAH        SUNNY     90  17   7 S14G22    30.25F
$$

NVZ017-020-022-292200-
SOUTHERN NEVADA

CITY           SKY/WX    TMP DP  RH WIND       PRES   REMARKS
LAS VEGAS      MOSUNNY  103  35   9 NE10      29.96F
N. LAS VEGAS   SUNNY    101  35  10 SE8       29.99F
NELLIS AFB     SUNNY    101  40  12 S3        29.96F
HENDERSON      SUNNY    102  42  13 NE9G22    30.02F
MERCURY        SUNNY    100  26   7 SW7       30.06F
$$


USA.gov is the U.S. government's official web portal to all federal, state and local government web resources and services.